DMSP 5D-2 F13 DEB, 42322

Orbit data source: Space-Track

DMSP 5D-2 F13 DEB, 42322 is space debris in SSO originally from a launch on Fri, 24 Mar 1995 UTC launched from the Air Force Western Test Range (AFWTR). Debris objects in space refer to the collection of defunct objects orbiting the Earth. Examples of debris include non-operational satellites, rocket bodies, and fragments generated from explosions, collisions, or faulty payload assembly.

Loading next visibility...
Identifier
42322, 1995-015JQ
Orbit
SSO
Country
Flag of USUS
Related business
Manufacturer
Unknown
Mission
Spacecraft
Bus & Motor
Unknown
Mass
Unknown
Launch date (UTC)
1995-03-24 (31 years ago)
Launch vehicle
Unknown
Launch site
Air Force Western Test Range (AFWTR)
Object type
Payload
Rocket body
Debris
Shape & HBR
Unknown shape, 0.1 m
Radar Cross Section
Small (<0.1 m²)

Expand to show TLE details & history
Last TLE update: 4 days ago

TLE from 4 days ago
0 DMSP 5D-2 F13 DEB
1 42322U 95015JQ  26250.46765669  .00030907  00000-0  33862-2 0  9990
2 42322  98.7579 329.7796 0017581  89.4796 270.8432 14.87578484595054
Epoch: 2026-09-07T11:13Z
TLE epoch observation values (Epoch: 2026-09-07T11:13:25.538Z)
Latitude
0.00001°
Longitude
174.87519°
Altitude
608.35 km
Speed
7.555 km/s
True Right ascension
21h 59m 07s
True Declination
0° 00' 00"
Sunlit
Object was in full shadow at epoch
Visualization orbit readout
Latitude
Unknown
Longitude
Unknown
Altitude
Unknown
Speed
Unknown
Apparent Right ascension
Unknown
Apparent Declination
Unknown
Sunlit
N/A
Visualization observer readout
Local Sidereal Time
03:54:52
Azimuth
Unknown
Elevation
Unknown
Doppler factor
Unknown
Orbital elements
Apogee altitude
614.848 km
Perigee altitude
590.303 km
Semi-major axis
6,980.712 km
Eccentricity
0.00176
Inclination
98.7579°
RAAN
329.7796°
Arg. of periapsis
89.4796°
True anomaly
270.64175°
Mean anomaly
270.8432°
Eccentric anomaly
270.74248°
Mean motion
3.72129 °/min
Orbital period
96.74 mins
BSTAR
0.0033862
Loading maneuver chart data...
Computing Atmospheric mass density...

Documentation

Showing up to 5 results
|